Volver al catálogo

CZ-3B R/B

ActivoHEO
NORAD 41587·ROCKET BODY·🇨🇳 China

Lanzado Jun 12, 2016 desde Xichang Satellite Launch Center

Loading…

Próximos Pases (próximas 24 horas)

TLE

ActualizadoSource: Space-Track

Época: Sep 14, 2026, 10:53 UTC

1 41587U 16037B   26257.45409199  .00045415  63087-6  10440-2 0  9995
2 41587  19.4042   5.7868 5645362  30.7373 352.6247  4.68105566119769

Sigue CZ-3B R/B en tiempo real con AllMySat

Download on the App Store